[Iaude] MPEC E146: 2024 EA3 [a=1.91,e=0.51,i=8.2,H=24.4]

mpec at cfa.harvard.edu mpec at cfa.harvard.edu
Mon Mar 11 15:27:48 EDT 2024


M.P.E.C. 2024-E146                               Issued 2024 March 11, 19:26 UT

     The Minor Planet Electronic Circulars contain information on unusual
         minor planets, routine data on comets and natural satellites,
         and occasional editorial announcements.  They are published
    on behalf of Division F of the International Astronomical Union by the
          Minor Planet Center, Smithsonian Astrophysical Observatory,
                          Cambridge, MA 02138, U.S.A.
			  
             Prepared using the Tamkin Foundation Computer Network

                              MPC at CFA.HARVARD.EDU
            URL https://www.minorplanetcenter.net/    ISSN 1523-6714

                                    2024 EA3                                    


Observations:
     K24E03A  C2024 03 02.54044211 18 37.116+24 43 22.90         21.34GVEE146F52
     K24E03A  C2024 03 02.55222111 18 36.839+24 43 14.12         21.42GVEE146F52
     K24E03A  C2024 03 02.56404211 18 36.593+24 43 05.44         21.06GVEE146F52
     K24E03A  C2024 03 02.57597311 18 36.334+24 42 56.61         21.70GVEE146F52
     K24E03A* C2024 03 10.48985311 17 25.213+22 01 18.16         20.23GVEE146V00
     K24E03A  C2024 03 10.49548711 17 25.055+22 01 05.77         20.63GVEE146V00
     K24E03A  C2024 03 10.50109611 17 24.914+22 00 53.86         20.52GVEE146V00
     K24E03A  C2024 03 10.50670111 17 24.767+22 00 41.51         20.74GVEE146V00
     K24E03A KB2024 03 10.64070 11 17 28.62 +21 56 13.1          19.7 GVEE146P13
     K24E03A KB2024 03 10.64797 11 17 28.30 +21 55 58.4          20.1 GVEE146P13
     K24E03A KB2024 03 10.65523 11 17 27.98 +21 55 43.7          20.5 GVEE146P13
     K24E03A KB2024 03 10.66247 11 17 27.65 +21 55 29.0          20.6 GVEE146P13
     K24E03A KC2024 03 10.86648 11 17 25.274+21 48 00.83         19.9 GVEE146B42
     K24E03A KC2024 03 10.87204 11 17 25.066+21 47 49.06         19.9 GVEE146B42
     K24E03A KC2024 03 10.87872 11 17 24.854+21 47 34.69         19.8 GVEE146B42
     K24E03A KC2024 03 11.19177211 17 22.37 +21 36 33.1          20.3 GXEE146858
     K24E03A KC2024 03 11.19638911 17 20.73 +21 36 20.9          20.3 GVEE146H21
     K24E03A KC2024 03 11.19878611 17 22.11 +21 36 18.3          20.1 GXEE146858
     K24E03A KC2024 03 11.19918411 17 20.62 +21 36 14.7          20.3 GVEE146H21
     K24E03A KC2024 03 11.20198011 17 20.51 +21 36 08.6          20.3 GVEE146H21
     K24E03A mC2024 03 11.20258411 17 22.247+21 36 12.82               VEE146I52
     K24E03A KC2024 03 11.20567511 17 21.86 +21 36 03.8          20.0 GXEE146858
     K24E03A mC2024 03 11.20708611 17 22.085+21 36 02.23         21.38GVEE146I52
     K24E03A mC2024 03 11.21161111 17 21.980+21 35 52.91         20.91GVEE146I52
     K24E03A mC2024 03 11.21611311 17 21.772+21 35 43.22         20.12GVEE146I52

Observer details:
858 Tebbutt Observatory, Edgewood.  Observer F. B. Zoltowski.  0.51-m f/8.1
    Schmidt-Cassegrain + CCD.
B42 Vitebsk.  Observer V. Nevski.  0.3-m f/5.0 0.3-m f/5.0 reflector + CCD.
F52 Pan-STARRS 2, Haleakala.  Observers J. Herman, T. Lowe, P. Minguez, A.
    Schultz, I. Smith.  Measurers K. Chambers, T. de Boer, J. Fairlamb, H.
    Gao, M. Huber, C.-C. Lin, E. Magnier, Y. Ramanjooloo, R. Wainscoat, R.
    Weryk.  1.8-m Ritchey-Chretien + CCD.
H21 Astronomical Research Observatory, Westfield.  Observer R. Holmes.
    Measurers T. Linder, R. Holmes, L. Horn.  0.76-m f/3.0 astrograph + CCD.
I52 Steward Observatory, Mt. Lemmon Station.  Observer H. Groeller.  Measurers
    T. Beuden, V. F. Carvajal, D. Fay, J. B. Fazekas, D. C. Fuls, A. R. Gibbs,
    A. D. Grauer, H. Groeller, J. K. Hogan, R. A. Kowalski, S. M. Larson, G.
    J. Leonard, D. Rankin, R. L. Seaman, F. C. Shelly, K. W. Wierzchos.  1.0-m
    prime focus + CCD.
P13 Baihuashan Observatory, Beijing.  Observers Z. Wang, B. Liu.  Measurer Z.
    Wang.  0.28-m f/2.2 reflector + CMO.
V00 Kitt Peak-Bok.  Observer M. J. Brucker.  Measurers M. J. Brucker, C. E.
    Woodward, T. Beuden, V. F. Carvajal, D. Fay, J. B. Fazekas, D. C. Fuls, A.
    R. Gibbs, H. Groeller, J. K. Hogan, R. A. Kowalski, S. M. Larson, C.
    Lejoly, G. J. Leonard, R. A. Mastaler, R. S. McMillan, D. Rankin, R. L.
    Seaman, F. C. Shelly, K. W. Wierzchos.  2.25-m reflector + 4x4K mosaic
    CCD.

Orbital elements:
2024 EA3                                                 Earth MOID = 0.0208 AU
Epoch 2024 Mar. 31.0 TT = JDT 2460400.5                 MPC                     
M 350.44254              (2000.0)            P               Q                  
n   0.37435853     Peri.  223.66971     -0.72085589     +0.69308478             
a   1.9066789      Node     0.20722     -0.59021691     -0.61347536             
e   0.5058952      Incl.    8.20765     -0.36333288     -0.37852539             
P   2.63           H   24.41          G   0.15           U   8                  
Residuals in seconds of arc
240302 F52  0.0   0.0     240310 P13  0.0   0.0     240311 H21  0.2+  0.0
240302 F52  0.1-  0.1-    240310 P13  0.2-  0.1+    240311 H21  0.3+  0.1+
240302 F52  0.1+  0.0     240310 P13  0.5-  0.2+    240311 I52 (1.7-  0.4+)
240302 F52  0.0   0.1+    240310 B42  0.0   0.4+    240311 858  0.4+  0.5+
240310 V00  0.1-  0.1+    240310 B42  0.2-  0.3+    240311 I52  1.4-  0.6-
240310 V00  0.1-  0.1-    240310 B42  0.1+  0.0     240311 I52  0.3-  0.2-
240310 V00  0.0   0.1+    240311 858  0.3-  0.1-    240311 I52  0.6-  0.2-
240310 V00  0.0   0.1-    240311 H21  0.0   0.1+
240310 P13  0.2+  0.1-    240311 858  0.0   0.1+

Ephemeris:
2024 EA3                 a,e,i = 1.91, 0.51, 8                   q = 0.9421
Date    TT    R. A. (2000) Decl.     Delta      r    Elong.  Phase     V
2024 02 10    11 14 00.1 +25 24 02   0.3351  1.2956   153.6    19.8    23.6
...
2024 02 25    11 18 28.2 +25 28 20   0.2113  1.1906   160.2    16.3    22.3
...
2024 03 04    11 18 32.8 +24 25 22   0.1534  1.1380   161.5    16.1    21.5
...
2024 03 10    11 17 36.4 +22 17 41   0.1128  1.1009   161.8    16.4    20.8
2024 03 11    11 17 22.3 +21 44 01   0.1063  1.0949   161.9    16.4    20.6
2024 03 12    11 17 06.9 +21 05 08   0.09980 1.0890   162.0    16.4    20.5
...
2024 03 18    11 15 05.6 +14 02 07   0.06235 1.0554   164.2    14.9    19.3
...
2024 03 26    11 07 11.6 -34 22 16   0.02260 1.0158   143.6    35.6    17.7
...
2024 04 10    23 21 58.3 -47 10 37   0.08688 0.9621    60.5   115.0    23.5

A. U. Tomatic                (C) Copyright 2024 MPC           M.P.E.C. 2024-E146





More information about the Iaude mailing list